DAL1579 KLAX-PHNL

Flight info

Callsign DAL1579
Flight time 5h 19m
Altitude 36000
Route SUMMR2 DINTY GALIP BARAZ/N0480F380 R464 BITTA MAGGI3
Aircraft B772/H-SDE2E3FGHIJ5LORVWXY/LB1D1

Departure

Time 2026-04-24 21:50
Airport Los Angeles International Airport (KLAX)

Arrival

Time 2026-04-25 03:10
Airport Daniel K. Inouye International Airport (PHNL)
Time Latitude Longitude Altitude Speed Heading
2026-04-24 21:06 33.94720 -118.40487 134 ft 0 kts 134°
2026-04-24 21:42 33.94730 -118.40499 133 ft 2 kts 134°
2026-04-24 21:42 33.94741 -118.40512 133 ft 2 kts 134°
2026-04-24 21:43 33.94751 -118.40525 133 ft 2 kts 134°
2026-04-24 21:43 33.94762 -118.40538 134 ft 2 kts 134°
2026-04-24 21:43 33.94772 -118.40551 134 ft 2 kts 134°
2026-04-24 21:43 33.94781 -118.40565 134 ft 2 kts 112°
2026-04-24 21:44 33.94785 -118.40582 134 ft 2 kts 92°
2026-04-24 21:44 33.94783 -118.40601 134 ft 2 kts 80°
2026-04-24 21:44 33.94781 -118.40618 134 ft 2 kts 82°
2026-04-24 21:44 33.94779 -118.40636 135 ft 2 kts 83°
2026-04-24 21:45 33.94778 -118.40654 135 ft 2 kts 83°
2026-04-24 21:45 33.94776 -118.40672 135 ft 2 kts 83°
2026-04-24 21:45 33.94775 -118.40682 135 ft 0 kts 83°
2026-04-24 21:47 33.94780 -118.40653 135 ft 12 kts 75°
2026-04-24 21:47 33.94865 -118.40557 133 ft 19 kts 62°
2026-04-24 21:48 33.94890 -118.40387 132 ft 20 kts 83°
2026-04-24 21:48 33.94904 -118.40216 130 ft 20 kts 84°
2026-04-24 21:48 33.94919 -118.40057 129 ft 20 kts 84°
2026-04-24 21:48 33.94961 -118.39930 125 ft 15 kts 28°
2026-04-24 21:49 33.95040 -118.39966 125 ft 14 kts 271°
2026-04-24 21:49 33.95033 -118.40088 126 ft 18 kts 264°
2026-04-24 21:49 33.94995 -118.40415 131 ft 71 kts 262°
2026-04-24 21:49 33.94907 -118.41277 135 ft 135 kts 262°
2026-04-24 21:50 33.94750 -118.42619 232 ft 175 kts 258°
2026-04-24 21:50 33.94564 -118.43976 900 ft 169 kts 257°
2026-04-24 21:50 33.94371 -118.45494 1250 ft 193 kts 264°
2026-04-24 21:50 33.94395 -118.47163 1662 ft 210 kts 273°
2026-04-24 21:51 33.94382 -118.48987 2056 ft 227 kts 263°
2026-04-24 21:51 33.94247 -118.50948 2502 ft 246 kts 264°
2026-04-24 21:51 33.94067 -118.53105 2984 ft 263 kts 263°
2026-04-24 21:51 33.93878 -118.55288 3764 ft 267 kts 264°
2026-04-24 21:52 33.93699 -118.57510 4685 ft 265 kts 265°
2026-04-24 21:52 33.93527 -118.59695 5530 ft 265 kts 265°
2026-04-24 21:52 33.93353 -118.61914 6281 ft 268 kts 265°
2026-04-24 21:52 33.93178 -118.64136 7018 ft 270 kts 265°
2026-04-24 21:53 33.93002 -118.66406 7767 ft 272 kts 264°
2026-04-24 21:53 33.92827 -118.68666 8462 ft 273 kts 264°
2026-04-24 21:53 33.92648 -118.70971 9149 ft 275 kts 264°
2026-04-24 21:53 33.92471 -118.73257 9798 ft 276 kts 264°
2026-04-24 21:54 33.92291 -118.75554 10321 ft 283 kts 264°
2026-04-24 21:54 33.92101 -118.77988 10588 ft 299 kts 264°
2026-04-24 21:54 33.91897 -118.80579 10992 ft 311 kts 264°
2026-04-24 21:54 33.91715 -118.83155 11682 ft 313 kts 267°
2026-04-24 21:55 33.91743 -118.85748 12479 ft 313 kts 271°
2026-04-24 21:55 33.91828 -118.88389 13109 ft 315 kts 271°
2026-04-24 21:55 33.91915 -118.91050 13749 ft 316 kts 270°
2026-04-24 21:55 33.91995 -118.93677 14442 ft 317 kts 270°
2026-04-24 21:56 33.92073 -118.96343 15070 ft 317 kts 270°
2026-04-24 21:56 33.92155 -118.98973 15730 ft 319 kts 272°
2026-04-24 21:56 33.92553 -119.01634 16309 ft 324 kts 284°
2026-04-24 21:56 33.93469 -119.04131 16879 ft 329 kts 296°
2026-04-24 21:57 33.94669 -119.06467 17551 ft 330 kts 297°
2026-04-24 21:57 33.95906 -119.08822 18163 ft 331 kts 297°
2026-04-24 21:57 33.97121 -119.11153 18748 ft 333 kts 296°
2026-04-24 21:57 33.98360 -119.13547 19342 ft 334 kts 297°
2026-04-24 21:58 33.99578 -119.15906 19932 ft 336 kts 297°
2026-04-24 21:58 34.00995 -119.18201 20488 ft 343 kts 306°
2026-04-24 21:58 34.02764 -119.20225 21115 ft 349 kts 314°
2026-04-24 21:58 34.04746 -119.21960 21657 ft 353 kts 317°
2026-04-24 21:59 34.06757 -119.23652 22175 ft 355 kts 316°
2026-04-24 21:59 34.08792 -119.25380 22686 ft 357 kts 316°
2026-04-24 21:59 34.10829 -119.27120 23201 ft 359 kts 316°
2026-04-24 21:59 34.12883 -119.28882 23703 ft 361 kts 316°
2026-04-24 22:00 34.14936 -119.30647 24135 ft 365 kts 315°
2026-04-24 22:00 34.17003 -119.32428 24562 ft 369 kts 316°
2026-04-24 22:00 34.19096 -119.34232 25048 ft 370 kts 316°
2026-04-24 22:00 34.21194 -119.36041 25500 ft 373 kts 315°
2026-04-24 22:01 34.23302 -119.37861 25891 ft 376 kts 315°
2026-04-24 22:01 34.25441 -119.39709 26288 ft 379 kts 315°
2026-04-24 22:01 34.27620 -119.41593 26694 ft 381 kts 315°
2026-04-24 22:01 34.29783 -119.43464 27049 ft 385 kts 315°
2026-04-24 22:02 34.31945 -119.45335 27422 ft 387 kts 315°
2026-04-24 22:02 34.34105 -119.47299 27834 ft 384 kts 311°
2026-04-24 22:02 34.35992 -119.49569 28138 ft 380 kts 302°
2026-04-24 22:02 34.37537 -119.52116 28385 ft 377 kts 295°
2026-04-24 22:03 34.38730 -119.54913 28750 ft 373 kts 287°
2026-04-24 22:03 34.39554 -119.57894 29117 ft 369 kts 279°
2026-04-24 22:03 34.39986 -119.60938 29498 ft 367 kts 272°
2026-04-24 22:03 34.40039 -119.64013 29864 ft 366 kts 265°
2026-04-24 22:04 34.39909 -119.67095 30220 ft 367 kts 265°
2026-04-24 22:04 34.39776 -119.70190 30602 ft 367 kts 264°
2026-04-24 22:04 34.39614 -119.73270 30944 ft 368 kts 264°
2026-04-24 22:04 34.39427 -119.76433 31259 ft 370 kts 263°
2026-04-24 22:05 34.39229 -119.79528 31564 ft 372 kts 264°
2026-04-24 22:05 34.39019 -119.82668 31878 ft 373 kts 264°
2026-04-24 22:05 34.38804 -119.85805 32171 ft 375 kts 263°
2026-04-24 22:05 34.38582 -119.88987 32483 ft 376 kts 263°
2026-04-24 22:06 34.38356 -119.92169 32780 ft 377 kts 263°
2026-04-24 22:06 34.38127 -119.95357 33053 ft 379 kts 263°
2026-04-24 22:06 34.37898 -119.98545 33319 ft 381 kts 263°
2026-04-24 22:06 34.37666 -120.01753 33596 ft 382 kts 263°
2026-04-24 22:07 34.37432 -120.04969 33848 ft 383 kts 263°
2026-04-24 22:07 34.37199 -120.08162 34090 ft 384 kts 263°
2026-04-24 22:07 34.36958 -120.11443 34289 ft 386 kts 263°
2026-04-24 22:07 34.36720 -120.14683 34449 ft 388 kts 263°
2026-04-24 22:08 34.36480 -120.17938 34625 ft 390 kts 263°
2026-04-24 22:08 34.36236 -120.21223 34806 ft 392 kts 263°
2026-04-24 22:08 34.35992 -120.24501 34965 ft 393 kts 263°
2026-04-24 22:08 34.35743 -120.27839 35159 ft 394 kts 263°
2026-04-24 22:09 34.35496 -120.31135 35344 ft 395 kts 263°
2026-04-24 22:09 34.35247 -120.34444 35489 ft 397 kts 263°
2026-04-24 22:09 34.34995 -120.37776 35637 ft 398 kts 263°
2026-04-24 22:09 34.34739 -120.41155 35780 ft 399 kts 263°
2026-04-24 22:10 34.34483 -120.44509 35896 ft 401 kts 263°
2026-04-24 22:10 34.33967 -120.51212 35946 ft 400 kts 263°
2026-04-24 22:11 34.33445 -120.57895 35951 ft 398 kts 263°
2026-04-24 22:11 34.32917 -120.64621 35960 ft 400 kts 263°
2026-04-24 22:12 34.32386 -120.71326 35978 ft 400 kts 263°
2026-04-24 22:12 34.31849 -120.78069 35985 ft 400 kts 262°
2026-04-24 22:13 34.31310 -120.84776 35991 ft 401 kts 263°
2026-04-24 22:13 34.30773 -120.91429 35982 ft 399 kts 262°
2026-04-24 22:14 34.30224 -120.98175 35991 ft 400 kts 262°
2026-04-24 22:14 34.29678 -121.04835 35981 ft 401 kts 263°
2026-04-24 22:15 34.29121 -121.11589 35983 ft 402 kts 263°
2026-04-24 22:15 34.28565 -121.18288 35984 ft 402 kts 262°
2026-04-24 22:16 34.28003 -121.25004 35982 ft 401 kts 262°
2026-04-24 22:16 34.27438 -121.31721 35981 ft 401 kts 262°
2026-04-24 22:17 34.26869 -121.38445 35979 ft 401 kts 262°
2026-04-24 22:17 34.26295 -121.45169 35982 ft 402 kts 262°
2026-04-24 22:18 34.25717 -121.51909 35982 ft 402 kts 262°
2026-04-24 22:18 34.25138 -121.58615 35984 ft 401 kts 262°
2026-04-24 22:19 34.24554 -121.65333 35983 ft 402 kts 262°
2026-04-24 22:19 34.23962 -121.72101 36006 ft 403 kts 261°
2026-04-24 22:20 34.23370 -121.78829 36004 ft 400 kts 262°
2026-04-24 22:20 34.22774 -121.85548 36000 ft 403 kts 262°
2026-04-24 22:21 34.22172 -121.92293 36006 ft 403 kts 262°
2026-04-24 22:21 34.21570 -121.99013 36007 ft 402 kts 261°
2026-04-24 22:22 34.20959 -122.05776 36019 ft 404 kts 261°
2026-04-24 22:22 34.20348 -122.12498 36018 ft 403 kts 262°
2026-04-24 22:23 34.19733 -122.19226 36017 ft 403 kts 262°
2026-04-24 22:23 34.19114 -122.25960 36015 ft 403 kts 262°
2026-04-24 22:24 34.18489 -122.32718 36018 ft 404 kts 262°
2026-04-24 22:24 34.17860 -122.39475 36011 ft 403 kts 262°
2026-04-24 22:25 34.17228 -122.46220 36013 ft 404 kts 261°
2026-04-24 22:25 34.16594 -122.52952 36013 ft 405 kts 261°
2026-04-24 22:26 34.15951 -122.59727 36012 ft 404 kts 261°
2026-04-24 22:26 34.15306 -122.66493 36023 ft 406 kts 261°
2026-04-24 22:27 34.14660 -122.73234 36029 ft 404 kts 261°
2026-04-24 22:27 34.14009 -122.79987 36030 ft 405 kts 261°
2026-04-24 22:28 34.13352 -122.86755 36024 ft 406 kts 261°
2026-04-24 22:28 34.12690 -122.93539 36023 ft 404 kts 261°
2026-04-24 22:29 34.11699 -123.03624 36028 ft 404 kts 261°
2026-04-24 22:29 34.11029 -123.10387 36029 ft 405 kts 261°
2026-04-24 22:30 34.10354 -123.17171 36026 ft 405 kts 261°
2026-04-24 22:30 34.09682 -123.23882 36025 ft 404 kts 261°
2026-04-24 22:31 34.09001 -123.30647 36026 ft 405 kts 261°
2026-04-24 22:31 34.08318 -123.37400 36027 ft 404 kts 261°
2026-04-24 22:32 34.07629 -123.44159 36024 ft 407 kts 261°
2026-04-24 22:32 34.06937 -123.50915 36028 ft 405 kts 261°
2026-04-24 22:33 34.06242 -123.57671 36027 ft 407 kts 261°
2026-04-24 22:33 34.05539 -123.64458 36027 ft 407 kts 261°
2026-04-24 22:34 34.04832 -123.71249 36043 ft 407 kts 260°
2026-04-24 22:34 34.04125 -123.78011 36046 ft 407 kts 260°
2026-04-24 22:35 34.03408 -123.84824 36044 ft 409 kts 260°
2026-04-24 22:35 34.02690 -123.91612 36042 ft 407 kts 260°
2026-04-24 22:36 34.01968 -123.98405 36048 ft 408 kts 260°
2026-04-24 22:36 34.01240 -124.05209 36046 ft 408 kts 260°
2026-04-24 22:37 34.00509 -124.12010 36044 ft 408 kts 260°
2026-04-24 22:37 33.99775 -124.18811 36048 ft 409 kts 260°
2026-04-24 22:38 33.99035 -124.25620 36045 ft 409 kts 260°
2026-04-24 22:38 33.98297 -124.32377 36044 ft 408 kts 260°
2026-04-24 22:39 33.97547 -124.39211 36047 ft 409 kts 260°
2026-04-24 22:39 33.96792 -124.46056 36051 ft 408 kts 260°
2026-04-24 22:40 33.96039 -124.52847 36047 ft 408 kts 260°
2026-04-24 22:40 33.95280 -124.59650 36045 ft 409 kts 260°
2026-04-24 22:41 33.94519 -124.66450 36058 ft 410 kts 259°
2026-04-24 22:41 33.93749 -124.73284 36061 ft 409 kts 259°
2026-04-24 22:42 33.92983 -124.80057 36063 ft 410 kts 259°
2026-04-24 22:42 33.92200 -124.86937 36065 ft 409 kts 259°
2026-04-24 22:43 33.91658 -124.93787 36050 ft 414 kts 267°
2026-04-24 22:43 33.92005 -125.00739 36065 ft 415 kts 270°
2026-04-24 22:44 33.92386 -125.07707 36064 ft 415 kts 269°
2026-04-24 22:44 33.92739 -125.14637 36065 ft 417 kts 269°
2026-04-24 22:45 33.93080 -125.21630 36072 ft 415 kts 269°
2026-04-24 22:45 33.93410 -125.28581 36069 ft 416 kts 269°
2026-04-24 22:46 33.93736 -125.35588 36064 ft 417 kts 269°
2026-04-24 22:46 33.94056 -125.42562 36071 ft 417 kts 269°
2026-04-24 22:47 33.94374 -125.49592 36068 ft 417 kts 269°
2026-04-24 22:47 33.94686 -125.56593 36068 ft 418 kts 269°
2026-04-24 22:48 33.94992 -125.63547 36066 ft 416 kts 269°
2026-04-24 22:48 33.95296 -125.70562 36088 ft 418 kts 269°
2026-04-24 22:49 33.95596 -125.77544 36090 ft 418 kts 269°
2026-04-24 22:49 33.95890 -125.84512 36083 ft 417 kts 269°
2026-04-24 22:50 33.96182 -125.91492 36091 ft 417 kts 269°
2026-04-24 22:50 33.96469 -125.98480 36085 ft 419 kts 269°
2026-04-24 22:51 33.96751 -126.05430 36090 ft 417 kts 269°
2026-04-24 22:51 33.97030 -126.12424 36083 ft 419 kts 269°
2026-04-24 22:52 33.97307 -126.19443 36079 ft 418 kts 269°
2026-04-24 22:52 33.97580 -126.26452 36090 ft 420 kts 269°
2026-04-24 22:53 33.97846 -126.33411 36082 ft 419 kts 269°
2026-04-24 22:53 33.98111 -126.40441 36093 ft 420 kts 269°
2026-04-24 22:54 33.98371 -126.47425 36086 ft 420 kts 269°
2026-04-24 22:54 33.98628 -126.54456 36089 ft 422 kts 269°
2026-04-24 22:55 33.98883 -126.61526 36084 ft 421 kts 269°
2026-04-24 22:55 33.99133 -126.68572 36111 ft 422 kts 268°
2026-04-24 22:56 33.99379 -126.75644 36101 ft 421 kts 269°
2026-04-24 22:56 33.99620 -126.82663 36106 ft 421 kts 269°
2026-04-24 22:57 33.99858 -126.89738 36106 ft 423 kts 269°
2026-04-24 22:57 34.00093 -126.96794 36113 ft 422 kts 269°
2026-04-24 22:58 34.00323 -127.03843 36111 ft 422 kts 269°
2026-04-24 22:58 34.00549 -127.10903 36096 ft 421 kts 268°
2026-04-24 22:59 34.00770 -127.17941 36107 ft 422 kts 268°
2026-04-24 23:00 34.01096 -127.28560 36104 ft 424 kts 268°
2026-04-24 23:00 34.01310 -127.35679 36101 ft 423 kts 269°
2026-04-24 23:01 34.01518 -127.42761 36109 ft 424 kts 269°
2026-04-24 23:01 34.01722 -127.49818 36104 ft 422 kts 268°
2026-04-24 23:02 34.01921 -127.56868 36102 ft 423 kts 268°
2026-04-24 23:02 34.02117 -127.63949 36098 ft 423 kts 269°
2026-04-24 23:03 34.02310 -127.71034 36112 ft 422 kts 268°
2026-04-24 23:03 34.02497 -127.78080 36113 ft 423 kts 268°
2026-04-24 23:04 34.02681 -127.85180 36110 ft 423 kts 268°
2026-04-24 23:04 34.02861 -127.92252 36111 ft 422 kts 268°
2026-04-24 23:05 34.03037 -127.99339 36108 ft 423 kts 268°
2026-04-24 23:05 34.03209 -128.06415 36106 ft 423 kts 268°
2026-04-24 23:06 34.03377 -128.13527 36105 ft 422 kts 268°
2026-04-24 23:06 34.03541 -128.20604 36103 ft 422 kts 268°
2026-04-24 23:07 34.03701 -128.27673 36104 ft 420 kts 268°
2026-04-24 23:07 34.03855 -128.34726 36101 ft 423 kts 268°
2026-04-24 23:08 34.04008 -128.41852 36099 ft 421 kts 268°
2026-04-24 23:08 34.04155 -128.48947 36097 ft 422 kts 268°
2026-04-24 23:09 34.04298 -128.55980 36095 ft 420 kts 268°
2026-04-24 23:09 34.04436 -128.63051 36097 ft 421 kts 268°
2026-04-24 23:10 34.04572 -128.70105 36111 ft 421 kts 266°
2026-04-24 23:10 34.04703 -128.77200 36110 ft 421 kts 266°
2026-04-24 23:11 34.04829 -128.84253 36109 ft 421 kts 266°
2026-04-24 23:11 34.04953 -128.91332 36108 ft 422 kts 266°
2026-04-24 23:12 34.05072 -128.98427 36107 ft 421 kts 266°
2026-04-24 23:12 34.05186 -129.05452 36103 ft 421 kts 266°
2026-04-24 23:13 34.05297 -129.12573 36103 ft 422 kts 266°
2026-04-24 23:13 34.05404 -129.19624 36099 ft 422 kts 266°
2026-04-24 23:14 34.05506 -129.26663 36101 ft 419 kts 266°
2026-04-24 23:14 34.05604 -129.33705 36100 ft 421 kts 266°
2026-04-24 23:15 34.05698 -129.40752 36094 ft 420 kts 266°
2026-04-24 23:15 34.05789 -129.47827 36100 ft 421 kts 266°
2026-04-24 23:16 34.05875 -129.54904 36096 ft 423 kts 266°
2026-04-24 23:16 34.05958 -129.61992 36098 ft 421 kts 266°
2026-04-24 23:17 34.06036 -129.69064 36109 ft 423 kts 265°
2026-04-24 23:17 34.06111 -129.76125 36104 ft 420 kts 266°
2026-04-24 23:18 34.06181 -129.83188 36110 ft 422 kts 266°
2026-04-24 23:18 34.06247 -129.90260 36103 ft 422 kts 266°
2026-04-24 23:19 34.06309 -129.97307 36105 ft 422 kts 266°
2026-04-24 23:19 34.06368 -130.04372 36108 ft 421 kts 265°
2026-04-24 23:20 34.06422 -130.11406 36107 ft 421 kts 265°
2026-04-24 23:20 34.06471 -130.18491 36108 ft 422 kts 265°
2026-04-24 23:21 34.06517 -130.25588 36109 ft 422 kts 265°
2026-04-24 23:21 34.06559 -130.32646 36105 ft 422 kts 265°
2026-04-24 23:22 34.06597 -130.39691 36106 ft 423 kts 265°
2026-04-24 23:22 34.06631 -130.46819 36111 ft 425 kts 265°
2026-04-24 23:23 34.06661 -130.53899 36108 ft 423 kts 265°
2026-04-24 23:23 34.06687 -130.61012 36110 ft 425 kts 265°
2026-04-24 23:24 34.06708 -130.68173 36124 ft 426 kts 264°
2026-04-24 23:24 34.06726 -130.75278 36126 ft 425 kts 265°
2026-04-24 23:25 34.06740 -130.82387 36125 ft 425 kts 265°
2026-04-24 23:25 34.06749 -130.89557 36122 ft 426 kts 264°
2026-04-24 23:26 34.06755 -130.96654 36121 ft 425 kts 264°
2026-04-24 23:26 34.06755 -131.03816 36126 ft 429 kts 265°
2026-04-24 23:27 34.06753 -131.10967 36120 ft 427 kts 265°
2026-04-24 23:27 34.06745 -131.18152 36115 ft 430 kts 264°
2026-04-24 23:28 34.06734 -131.25342 36127 ft 429 kts 265°
2026-04-24 23:28 34.06719 -131.32498 36116 ft 429 kts 265°
2026-04-24 23:29 34.06698 -131.39723 36120 ft 434 kts 265°
2026-04-24 23:29 34.06674 -131.47009 36121 ft 432 kts 265°
2026-04-24 23:30 34.06646 -131.54225 36119 ft 433 kts 265°
2026-04-24 23:30 34.06614 -131.61464 36123 ft 434 kts 265°
2026-04-24 23:31 34.06576 -131.68767 36129 ft 437 kts 264°
2026-04-24 23:31 34.06535 -131.76080 36127 ft 436 kts 265°
2026-04-24 23:32 34.06488 -131.83414 36124 ft 440 kts 264°
2026-04-24 23:32 34.06438 -131.90781 36128 ft 439 kts 264°
2026-04-24 23:33 34.06383 -131.98112 36125 ft 439 kts 264°
2026-04-24 23:33 34.06324 -132.05490 36125 ft 440 kts 264°
2026-04-24 23:34 34.06260 -132.12851 36124 ft 442 kts 265°
2026-04-24 23:34 34.06192 -132.20247 36119 ft 442 kts 265°
2026-04-24 23:35 34.06118 -132.27658 36127 ft 445 kts 265°
2026-04-24 23:35 34.06041 -132.35123 36126 ft 444 kts 265°
2026-04-24 23:36 34.05959 -132.42543 36129 ft 445 kts 265°
2026-04-24 23:36 34.05872 -132.49980 36127 ft 446 kts 265°
2026-04-24 23:37 34.05780 -132.57457 36130 ft 446 kts 266°
2026-04-24 23:37 34.05633 -132.68707 36146 ft 449 kts 265°
2026-04-24 23:38 34.05529 -132.76245 36148 ft 449 kts 265°
2026-04-24 23:38 34.05422 -132.83708 36140 ft 449 kts 266°
2026-04-24 23:39 34.05309 -132.91258 36147 ft 451 kts 266°
2026-04-24 23:39 34.05191 -132.98813 36150 ft 452 kts 266°
2026-04-24 23:40 34.05068 -133.06403 36146 ft 453 kts 266°
2026-04-24 23:40 34.04940 -133.13977 36145 ft 452 kts 266°
2026-04-24 23:41 34.04808 -133.21574 36148 ft 453 kts 266°
2026-04-24 23:41 34.04671 -133.29166 36148 ft 455 kts 266°
2026-04-24 23:42 34.04528 -133.36780 36145 ft 455 kts 266°
2026-04-24 23:42 34.04382 -133.44397 36149 ft 456 kts 266°
2026-04-24 23:43 34.04229 -133.52048 36144 ft 458 kts 266°
2026-04-24 23:43 34.04073 -133.59659 36144 ft 457 kts 266°
2026-04-24 23:44 34.03910 -133.67333 36149 ft 457 kts 266°
2026-04-24 23:44 34.03743 -133.75000 36147 ft 458 kts 266°
2026-04-24 23:45 34.03572 -133.82637 36149 ft 457 kts 266°
2026-04-24 23:45 34.03396 -133.90289 36146 ft 459 kts 266°
2026-04-24 23:46 34.03213 -133.98015 36154 ft 460 kts 266°
2026-04-24 23:46 34.03027 -134.05684 36155 ft 461 kts 266°
2026-04-24 23:47 34.02834 -134.13440 36150 ft 461 kts 266°
2026-04-24 23:47 34.02638 -134.21118 36155 ft 463 kts 267°
2026-04-24 23:48 34.02426 -134.28877 36153 ft 463 kts 265°
2026-04-24 23:48 34.01099 -134.36464 36165 ft 461 kts 249°
2026-04-24 23:49 33.98677 -134.43643 36152 ft 461 kts 247°
2026-04-24 23:49 33.96173 -134.50731 36156 ft 463 kts 246°
2026-04-24 23:50 33.93605 -134.57816 36151 ft 461 kts 246°
2026-04-24 23:50 33.90998 -134.64902 36157 ft 463 kts 246°
2026-04-24 23:51 33.88369 -134.71991 36164 ft 464 kts 245°
2026-04-24 23:51 33.85739 -134.79044 36161 ft 465 kts 245°
2026-04-24 23:52 33.83070 -134.86174 36167 ft 466 kts 245°
2026-04-24 23:52 33.80399 -134.93288 36162 ft 466 kts 246°
2026-04-24 23:53 33.77728 -135.00385 36160 ft 467 kts 245°
2026-04-24 23:53 33.75050 -135.07480 36167 ft 467 kts 246°
2026-04-24 23:54 33.72355 -135.14607 36170 ft 466 kts 246°
2026-04-24 23:54 33.69670 -135.21690 36170 ft 466 kts 246°
2026-04-24 23:55 33.66976 -135.28783 36170 ft 466 kts 246°
2026-04-24 23:55 33.64287 -135.35846 36174 ft 468 kts 246°
2026-04-24 23:56 33.61567 -135.42978 36176 ft 467 kts 246°
2026-04-24 23:56 33.58858 -135.50066 36175 ft 470 kts 246°
2026-04-24 23:57 33.57486 -135.53648 36303 ft 472 kts 246°
2026-04-24 23:57 33.56111 -135.57236 36627 ft 470 kts 246°
2026-04-24 23:57 33.54732 -135.60829 36942 ft 468 kts 246°
2026-04-24 23:57 33.53391 -135.64320 37225 ft 467 kts 246°
2026-04-24 23:58 33.52029 -135.67865 37452 ft 466 kts 246°
2026-04-24 23:58 33.50667 -135.71403 37632 ft 467 kts 246°
2026-04-24 23:58 33.49317 -135.74908 37816 ft 467 kts 246°
2026-04-24 23:58 33.47953 -135.78444 38000 ft 467 kts 246°
2026-04-24 23:59 33.46590 -135.81973 38163 ft 466 kts 246°
2026-04-24 23:59 33.45235 -135.85480 38177 ft 466 kts 246°
2026-04-24 23:59 33.42506 -135.92531 38182 ft 466 kts 246°
2026-04-25 00:00 33.39761 -135.99606 38179 ft 466 kts 246°
2026-04-25 00:00 33.37035 -136.06621 38179 ft 467 kts 246°
2026-04-25 00:01 33.34296 -136.13649 38180 ft 468 kts 246°
2026-04-25 00:01 33.31532 -136.20729 38178 ft 469 kts 246°
2026-04-25 00:02 33.28765 -136.27805 38187 ft 468 kts 246°
2026-04-25 00:02 33.26015 -136.34821 38182 ft 466 kts 246°
2026-04-25 00:03 33.23257 -136.41840 38188 ft 466 kts 246°
2026-04-25 00:03 33.20488 -136.48874 38185 ft 466 kts 246°
2026-04-25 00:04 33.17726 -136.55879 38185 ft 466 kts 246°
2026-04-25 00:04 33.14955 -136.62889 38186 ft 466 kts 246°
2026-04-25 00:05 33.12187 -136.69878 38189 ft 468 kts 246°
2026-04-25 00:05 33.09411 -136.76872 38193 ft 466 kts 246°
2026-04-25 00:06 33.06623 -136.83882 38191 ft 468 kts 246°
2026-04-25 00:06 33.03828 -136.90897 38186 ft 469 kts 246°
2026-04-25 00:07 33.01036 -136.97890 38177 ft 470 kts 246°
2026-04-25 00:07 32.98226 -137.04913 38178 ft 471 kts 246°
2026-04-25 00:08 32.95395 -137.11972 38173 ft 469 kts 247°
2026-04-25 00:08 32.92600 -137.18932 38187 ft 468 kts 247°
2026-04-25 00:09 32.89799 -137.25890 38182 ft 467 kts 247°
2026-04-25 00:09 32.86980 -137.32877 38181 ft 468 kts 248°
2026-04-25 00:10 32.84161 -137.39853 38183 ft 467 kts 248°
2026-04-25 00:10 32.81347 -137.46800 38173 ft 465 kts 248°
2026-04-25 00:11 32.78527 -137.53752 38136 ft 466 kts 248°
2026-04-25 00:11 32.75714 -137.60672 38179 ft 467 kts 248°
2026-04-25 00:12 32.72890 -137.67601 38196 ft 468 kts 248°
2026-04-25 00:12 32.70056 -137.74542 38193 ft 467 kts 248°
2026-04-25 00:13 32.67218 -137.81483 38189 ft 468 kts 248°
2026-04-25 00:13 32.64367 -137.88438 38199 ft 467 kts 249°
2026-04-25 00:14 32.61521 -137.95367 38193 ft 467 kts 249°
2026-04-25 00:14 32.58659 -138.02325 38204 ft 468 kts 249°
2026-04-25 00:15 32.55817 -138.09218 38204 ft 465 kts 249°
2026-04-25 00:15 32.52958 -138.16141 38196 ft 467 kts 249°
2026-04-25 00:16 32.50102 -138.23039 38187 ft 466 kts 249°
2026-04-25 00:16 32.47237 -138.29947 38197 ft 466 kts 249°
2026-04-25 00:17 32.44389 -138.36804 38201 ft 466 kts 249°
2026-04-25 00:17 32.41524 -138.43680 38198 ft 461 kts 249°
2026-04-25 00:18 32.38688 -138.50485 38204 ft 463 kts 249°
2026-04-25 00:18 32.35863 -138.57243 38216 ft 463 kts 249°
2026-04-25 00:19 32.33021 -138.64029 38193 ft 460 kts 249°
2026-04-25 00:19 32.30170 -138.70828 38243 ft 462 kts 249°
2026-04-25 00:20 32.27329 -138.77586 38217 ft 460 kts 249°
2026-04-25 00:20 32.24467 -138.84383 38205 ft 459 kts 249°
2026-04-25 00:21 32.21613 -138.91147 38231 ft 458 kts 249°
2026-04-25 00:21 32.18786 -138.97833 38200 ft 457 kts 249°
2026-04-25 00:22 32.15934 -139.04568 38205 ft 455 kts 249°
2026-04-25 00:22 32.13082 -139.11295 38200 ft 458 kts 249°
2026-04-25 00:23 32.10223 -139.18019 38196 ft 458 kts 249°
2026-04-25 00:23 32.07363 -139.24734 38197 ft 459 kts 249°
2026-04-25 00:24 32.04504 -139.31436 38195 ft 461 kts 249°
2026-04-25 00:24 32.01610 -139.38205 38199 ft 459 kts 249°
2026-04-25 00:25 31.98727 -139.44939 38193 ft 460 kts 249°
2026-04-25 00:25 31.95839 -139.51669 38194 ft 461 kts 249°
2026-04-25 00:26 31.92937 -139.58418 38195 ft 461 kts 249°
2026-04-25 00:26 31.90040 -139.65146 38192 ft 463 kts 249°
2026-04-25 00:27 31.88580 -139.68532 38315 ft 463 kts 249°
2026-04-25 00:27 31.87127 -139.71898 38198 ft 464 kts 249°
2026-04-25 00:27 31.84195 -139.78679 38189 ft 463 kts 249°
2026-04-25 00:28 31.81282 -139.85406 38191 ft 463 kts 249°
2026-04-25 00:28 31.78361 -139.92140 38192 ft 463 kts 249°
2026-04-25 00:29 31.75400 -139.98952 38191 ft 466 kts 249°
2026-04-25 00:29 31.72454 -140.05718 38185 ft 466 kts 249°
2026-04-25 00:30 31.69500 -140.12483 38188 ft 463 kts 249°
2026-04-25 00:30 31.66537 -140.19266 38183 ft 466 kts 248°
2026-04-25 00:31 31.63584 -140.26007 38184 ft 464 kts 249°
2026-04-25 00:31 31.60632 -140.32738 38183 ft 466 kts 249°
2026-04-25 00:32 31.57652 -140.39517 38185 ft 465 kts 249°
2026-04-25 00:32 31.54691 -140.46243 38180 ft 466 kts 249°
2026-04-25 00:33 31.51709 -140.53005 38187 ft 467 kts 249°
2026-04-25 00:33 31.48727 -140.59749 38186 ft 465 kts 249°
2026-04-25 00:34 31.45741 -140.66495 38192 ft 465 kts 248°
2026-04-25 00:34 31.42759 -140.73218 38194 ft 468 kts 248°
2026-04-25 00:35 31.39755 -140.79977 38195 ft 467 kts 248°
2026-04-25 00:35 31.36759 -140.86710 38197 ft 468 kts 248°
2026-04-25 00:36 31.33733 -140.93492 38197 ft 467 kts 248°
2026-04-25 00:36 31.30738 -141.00197 38196 ft 469 kts 248°
2026-04-25 00:37 31.27692 -141.07002 38197 ft 468 kts 249°
2026-04-25 00:37 31.24689 -141.13701 38199 ft 469 kts 249°
2026-04-25 00:38 31.21641 -141.20485 38199 ft 468 kts 248°
2026-04-25 00:38 31.18616 -141.27208 38200 ft 469 kts 249°
2026-04-25 00:39 31.15586 -141.33922 38199 ft 467 kts 249°
2026-04-25 00:39 31.12560 -141.40616 38196 ft 469 kts 248°
2026-04-25 00:40 31.09498 -141.47376 38191 ft 468 kts 248°
2026-04-25 00:40 31.06455 -141.54079 38192 ft 468 kts 248°
2026-04-25 00:41 31.03399 -141.60802 38187 ft 468 kts 248°
2026-04-25 00:41 31.00345 -141.67509 38195 ft 469 kts 248°
2026-04-25 00:42 30.97283 -141.74222 38197 ft 470 kts 248°
2026-04-25 00:42 30.94209 -141.80943 38197 ft 468 kts 248°
2026-04-25 00:43 30.91130 -141.87672 38200 ft 470 kts 248°
2026-04-25 00:43 30.88057 -141.94371 38200 ft 469 kts 248°
2026-04-25 00:44 30.84981 -142.01065 38204 ft 468 kts 248°
2026-04-25 00:44 30.81910 -142.07739 38205 ft 469 kts 248°
2026-04-25 00:45 30.78819 -142.14445 38214 ft 471 kts 248°
2026-04-25 00:45 30.75719 -142.21153 38196 ft 468 kts 248°
2026-04-25 00:46 30.72621 -142.27850 38203 ft 470 kts 248°
2026-04-25 00:47 30.67990 -142.37836 38196 ft 469 kts 248°
2026-04-25 00:47 30.64870 -142.44551 38201 ft 469 kts 248°
2026-04-25 00:48 30.61765 -142.51219 38199 ft 469 kts 248°
2026-04-25 00:48 30.58654 -142.57892 38191 ft 471 kts 248°
2026-04-25 00:49 30.55525 -142.64589 38194 ft 468 kts 248°
2026-04-25 00:49 30.52404 -142.71258 38201 ft 470 kts 247°
2026-04-25 00:50 30.49282 -142.77919 38204 ft 469 kts 247°
2026-04-25 00:50 30.46169 -142.84546 38205 ft 468 kts 247°
2026-04-25 00:51 30.43023 -142.91237 38202 ft 470 kts 247°
2026-04-25 00:51 30.39890 -142.97884 38204 ft 470 kts 247°
2026-04-25 00:52 30.36748 -143.04540 38200 ft 468 kts 247°
2026-04-25 00:52 30.33606 -143.11185 38202 ft 469 kts 247°
2026-04-25 00:53 30.30471 -143.17804 38204 ft 470 kts 246°
2026-04-25 00:53 30.27318 -143.24449 38201 ft 468 kts 247°
2026-04-25 00:54 30.24178 -143.31059 38200 ft 469 kts 246°
2026-04-25 00:54 30.21033 -143.37665 38196 ft 469 kts 246°
2026-04-25 00:55 30.17874 -143.44287 38200 ft 469 kts 246°
2026-04-25 00:55 30.14722 -143.50886 38195 ft 468 kts 246°
2026-04-25 00:56 30.11549 -143.57521 38190 ft 471 kts 246°
2026-04-25 00:56 30.08388 -143.64113 38196 ft 469 kts 246°
2026-04-25 00:57 30.05232 -143.70689 38200 ft 470 kts 246°
2026-04-25 00:57 30.02040 -143.77325 38198 ft 469 kts 246°
2026-04-25 00:58 29.98857 -143.83934 38197 ft 471 kts 246°
2026-04-25 00:58 29.95676 -143.90526 38197 ft 470 kts 245°
2026-04-25 00:59 29.92505 -143.97087 38190 ft 469 kts 246°
2026-04-25 00:59 29.89304 -144.03699 38184 ft 469 kts 246°
2026-04-25 01:00 29.86140 -144.10223 38186 ft 469 kts 246°
2026-04-25 01:00 29.82945 -144.16801 38181 ft 469 kts 246°
2026-04-25 01:01 29.79745 -144.23378 38185 ft 470 kts 245°
2026-04-25 01:01 29.76546 -144.29942 38177 ft 469 kts 245°
2026-04-25 01:02 29.73343 -144.36504 38177 ft 468 kts 245°
2026-04-25 01:02 29.70146 -144.43042 38181 ft 469 kts 245°
2026-04-25 01:03 29.66929 -144.49611 38179 ft 470 kts 245°
2026-04-25 01:03 29.63702 -144.56187 38174 ft 468 kts 245°
2026-04-25 01:04 29.60508 -144.62689 38179 ft 469 kts 245°
2026-04-25 01:04 29.57283 -144.69240 38186 ft 468 kts 245°
2026-04-25 01:05 29.54059 -144.75781 38183 ft 469 kts 245°
2026-04-25 01:05 29.50849 -144.82280 38183 ft 467 kts 245°
2026-04-25 01:06 29.47612 -144.88826 38184 ft 469 kts 245°
2026-04-25 01:06 29.44403 -144.95303 38182 ft 467 kts 245°
2026-04-25 01:07 29.41177 -145.01807 38184 ft 470 kts 245°
2026-04-25 01:07 29.37948 -145.08302 38179 ft 467 kts 244°
2026-04-25 01:08 29.34746 -145.14734 38179 ft 466 kts 245°
2026-04-25 01:08 29.31503 -145.21240 38176 ft 469 kts 244°
2026-04-25 01:09 29.28280 -145.27695 38174 ft 468 kts 245°
2026-04-25 01:09 29.25051 -145.34149 38173 ft 468 kts 244°
2026-04-25 01:10 29.21811 -145.40617 38171 ft 467 kts 244°
2026-04-25 01:10 29.18573 -145.47070 38168 ft 468 kts 244°
2026-04-25 01:11 29.15352 -145.53479 38177 ft 467 kts 245°
2026-04-25 01:11 29.12117 -145.59907 38172 ft 468 kts 244°
2026-04-25 01:12 29.08858 -145.66370 38173 ft 467 kts 244°
2026-04-25 01:12 29.05617 -145.72789 38175 ft 467 kts 244°
2026-04-25 01:13 29.02363 -145.79224 38176 ft 468 kts 244°
2026-04-25 01:13 28.99128 -145.85609 38180 ft 466 kts 244°
2026-04-25 01:14 28.95874 -145.92023 38181 ft 468 kts 244°
2026-04-25 01:14 28.92592 -145.98483 38167 ft 467 kts 244°
2026-04-25 01:15 28.89337 -146.04880 38168 ft 468 kts 244°
2026-04-25 01:15 28.86067 -146.11293 38166 ft 467 kts 244°
2026-04-25 01:16 28.82808 -146.17679 38161 ft 469 kts 244°
2026-04-25 01:16 28.79511 -146.24126 38154 ft 469 kts 244°
2026-04-25 01:17 28.76225 -146.30543 38165 ft 468 kts 244°
2026-04-25 01:17 28.72941 -146.36945 38161 ft 468 kts 244°
2026-04-25 01:18 28.69648 -146.43356 38160 ft 468 kts 244°
2026-04-25 01:18 28.66365 -146.49738 38151 ft 469 kts 244°
2026-04-25 01:19 28.63046 -146.56180 38160 ft 468 kts 244°
2026-04-25 01:19 28.59734 -146.62596 38150 ft 469 kts 244°
2026-04-25 01:20 28.56417 -146.69016 38151 ft 470 kts 243°
2026-04-25 01:20 28.53086 -146.75449 38156 ft 469 kts 243°
2026-04-25 01:21 28.49768 -146.81848 38154 ft 469 kts 243°
2026-04-25 01:21 28.46450 -146.88237 38152 ft 470 kts 243°
2026-04-25 01:22 28.43126 -146.94629 38149 ft 469 kts 243°
2026-04-25 01:22 28.39779 -147.01056 38144 ft 470 kts 243°
2026-04-25 01:23 28.36461 -147.07416 38151 ft 470 kts 243°
2026-04-25 01:23 28.33110 -147.13831 38146 ft 469 kts 243°
2026-04-25 01:24 28.29773 -147.20209 38144 ft 470 kts 243°
2026-04-25 01:24 28.26430 -147.26587 38142 ft 470 kts 243°
2026-04-25 01:25 28.23086 -147.32959 38140 ft 471 kts 243°
2026-04-25 01:25 28.19731 -147.39343 38134 ft 470 kts 243°
2026-04-25 01:26 28.16376 -147.45715 38138 ft 471 kts 243°
2026-04-25 01:26 28.13024 -147.52074 38134 ft 470 kts 243°
2026-04-25 01:27 28.09670 -147.58426 38132 ft 471 kts 243°
2026-04-25 01:27 28.06293 -147.64813 38131 ft 472 kts 243°
2026-04-25 01:28 28.01229 -147.74371 38136 ft 473 kts 243°
2026-04-25 01:28 27.97845 -147.80747 38135 ft 473 kts 242°
2026-04-25 01:29 27.94449 -147.87135 38134 ft 473 kts 242°
2026-04-25 01:29 27.91059 -147.93503 38131 ft 472 kts 242°
2026-04-25 01:30 27.87667 -147.99866 38124 ft 471 kts 242°
2026-04-25 01:30 27.84286 -148.06194 38128 ft 472 kts 242°
2026-04-25 01:31 27.80894 -148.12537 38126 ft 472 kts 242°
2026-04-25 01:31 27.77493 -148.18884 38126 ft 472 kts 242°
2026-04-25 01:32 27.74090 -148.25226 38127 ft 472 kts 242°
2026-04-25 01:32 27.70687 -148.31560 38125 ft 473 kts 242°
2026-04-25 01:33 27.67256 -148.37936 38128 ft 472 kts 242°
2026-04-25 01:33 27.63853 -148.44251 38124 ft 472 kts 242°
2026-04-25 01:34 27.60431 -148.50591 38125 ft 472 kts 242°
2026-04-25 01:34 27.57011 -148.56920 38126 ft 473 kts 242°
2026-04-25 01:35 27.53577 -148.63263 38125 ft 472 kts 242°
2026-04-25 01:35 27.50164 -148.69560 38133 ft 473 kts 242°
2026-04-25 01:36 27.46729 -148.75886 38131 ft 474 kts 242°
2026-04-25 01:36 27.43280 -148.82231 38130 ft 474 kts 242°
2026-04-25 01:37 27.39822 -148.88582 38124 ft 473 kts 242°
2026-04-25 01:37 27.36381 -148.94893 38127 ft 473 kts 242°
2026-04-25 01:38 27.32946 -149.01184 38127 ft 473 kts 242°
2026-04-25 01:38 27.29489 -149.07507 38124 ft 474 kts 242°
2026-04-25 01:39 27.26055 -149.13779 38126 ft 473 kts 242°
2026-04-25 01:39 27.22603 -149.20073 38121 ft 474 kts 242°
2026-04-25 01:40 27.19132 -149.26393 38117 ft 474 kts 242°
2026-04-25 01:40 27.15662 -149.32703 38118 ft 475 kts 242°
2026-04-25 01:41 27.12189 -149.39008 38118 ft 474 kts 241°
2026-04-25 01:41 27.08720 -149.45297 38113 ft 473 kts 241°
2026-04-25 01:42 27.05252 -149.51576 38111 ft 473 kts 241°
2026-04-25 01:42 27.01760 -149.57890 38113 ft 473 kts 242°
2026-04-25 01:43 26.98297 -149.64142 38115 ft 474 kts 241°
2026-04-25 01:43 26.94796 -149.70454 38116 ft 475 kts 241°
2026-04-25 01:44 26.91297 -149.76755 38111 ft 475 kts 241°
2026-04-25 01:44 26.87800 -149.83040 38102 ft 475 kts 241°
2026-04-25 01:45 26.84313 -149.89299 38107 ft 475 kts 240°
2026-04-25 01:45 26.80938 -149.95349 38102 ft 475 kts 240°
2026-04-25 01:46 26.77430 -150.01630 38105 ft 474 kts 240°
2026-04-25 01:46 26.73941 -150.07867 38109 ft 475 kts 240°
2026-04-25 01:47 26.70421 -150.14153 38107 ft 475 kts 240°
2026-04-25 01:47 26.66900 -150.20428 38094 ft 476 kts 240°
2026-04-25 01:48 26.63394 -150.26669 38098 ft 475 kts 240°
2026-04-25 01:48 26.59869 -150.32936 38099 ft 475 kts 240°
2026-04-25 01:49 26.56352 -150.39180 38100 ft 475 kts 240°
2026-04-25 01:49 26.52818 -150.45445 38093 ft 475 kts 240°
2026-04-25 01:50 26.49302 -150.51669 38098 ft 475 kts 240°
2026-04-25 01:50 26.45769 -150.57915 38089 ft 475 kts 240°
2026-04-25 01:51 26.42234 -150.64156 38087 ft 476 kts 240°
2026-04-25 01:51 26.38697 -150.70392 38096 ft 476 kts 239°
2026-04-25 01:52 26.35145 -150.76646 38097 ft 476 kts 239°
2026-04-25 01:52 26.31599 -150.82881 38100 ft 477 kts 239°
2026-04-25 01:53 26.28052 -150.89108 38101 ft 477 kts 239°
2026-04-25 01:53 26.24488 -150.95358 38088 ft 477 kts 239°
2026-04-25 01:54 26.20933 -151.01582 38095 ft 477 kts 239°
2026-04-25 01:54 26.17369 -151.07814 38094 ft 476 kts 239°
2026-04-25 01:55 26.13802 -151.14041 38096 ft 477 kts 239°
2026-04-25 01:55 26.10216 -151.20296 38093 ft 477 kts 239°
2026-04-25 01:56 26.06659 -151.26491 38082 ft 477 kts 239°
2026-04-25 01:56 26.03077 -151.32719 38089 ft 478 kts 239°
2026-04-25 01:57 25.97697 -151.42061 38095 ft 478 kts 239°
2026-04-25 01:58 25.94108 -151.48280 38087 ft 478 kts 239°
2026-04-25 01:58 25.90497 -151.54532 38087 ft 478 kts 239°
2026-04-25 01:59 25.86915 -151.60724 38083 ft 477 kts 239°
2026-04-25 01:59 25.83310 -151.66946 38076 ft 478 kts 239°
2026-04-25 02:00 25.79713 -151.73148 38088 ft 477 kts 239°
2026-04-25 02:00 25.76130 -151.79315 38083 ft 477 kts 238°
2026-04-25 02:01 25.72525 -151.85513 38080 ft 477 kts 239°
2026-04-25 02:01 25.68930 -151.91685 38081 ft 478 kts 238°
2026-04-25 02:02 25.65306 -151.97900 38083 ft 478 kts 238°
2026-04-25 02:02 25.61679 -152.04112 38073 ft 479 kts 239°
2026-04-25 02:03 25.58073 -152.10278 38078 ft 478 kts 238°
2026-04-25 02:03 25.54454 -152.16460 38077 ft 476 kts 238°
2026-04-25 02:04 25.50851 -152.22604 38073 ft 477 kts 238°
2026-04-25 02:04 25.47228 -152.28777 38075 ft 477 kts 238°
2026-04-25 02:05 25.43605 -152.34941 38069 ft 477 kts 238°
2026-04-25 02:05 25.39996 -152.41071 38073 ft 478 kts 238°
2026-04-25 02:06 25.36348 -152.47261 38070 ft 477 kts 238°
2026-04-25 02:06 25.32744 -152.53369 38077 ft 477 kts 238°
2026-04-25 02:07 25.29100 -152.59535 38074 ft 477 kts 238°
2026-04-25 02:07 25.25473 -152.65666 38073 ft 477 kts 238°
2026-04-25 02:08 25.21856 -152.71771 38075 ft 476 kts 238°
2026-04-25 02:08 25.18208 -152.77920 38077 ft 477 kts 238°
2026-04-25 02:09 25.14583 -152.84024 38075 ft 476 kts 238°
2026-04-25 02:09 25.10960 -152.90115 38070 ft 475 kts 238°
2026-04-25 02:10 25.07308 -152.96249 38073 ft 475 kts 238°
2026-04-25 02:10 25.03698 -153.02304 38071 ft 475 kts 238°
2026-04-25 02:11 25.00036 -153.08437 38066 ft 476 kts 238°
2026-04-25 02:11 24.96404 -153.14513 38075 ft 477 kts 238°
2026-04-25 02:12 24.92747 -153.20624 38065 ft 475 kts 238°
2026-04-25 02:12 24.89098 -153.26712 38081 ft 474 kts 238°
2026-04-25 02:13 24.85472 -153.32754 38061 ft 475 kts 238°
2026-04-25 02:13 24.81824 -153.38827 38068 ft 475 kts 238°
2026-04-25 02:14 24.78182 -153.44881 38075 ft 474 kts 238°
2026-04-25 02:14 24.74527 -153.50948 38071 ft 473 kts 238°
2026-04-25 02:15 24.70886 -153.56987 38063 ft 475 kts 238°
2026-04-25 02:15 24.67238 -153.63028 38066 ft 475 kts 238°
2026-04-25 02:16 24.63592 -153.69058 38082 ft 473 kts 238°
2026-04-25 02:16 24.59948 -153.75078 38079 ft 473 kts 238°
2026-04-25 02:17 24.56314 -153.81074 38071 ft 472 kts 238°
2026-04-25 02:17 24.52674 -153.87073 38083 ft 473 kts 238°
2026-04-25 02:18 24.49039 -153.93056 38070 ft 473 kts 238°
2026-04-25 02:18 24.45375 -153.99078 38070 ft 473 kts 238°
2026-04-25 02:19 24.41736 -154.05054 38075 ft 473 kts 238°
2026-04-25 02:19 24.38075 -154.11058 38065 ft 472 kts 238°
2026-04-25 02:20 24.34417 -154.17049 38077 ft 473 kts 238°
2026-04-25 02:20 24.30786 -154.22989 38079 ft 471 kts 238°
2026-04-25 02:21 24.27121 -154.28952 38072 ft 472 kts 238°
2026-04-25 02:21 24.23400 -154.34969 38071 ft 472 kts 238°
2026-04-25 02:22 24.19722 -154.40910 38075 ft 471 kts 238°
2026-04-25 02:22 24.16017 -154.46890 38073 ft 470 kts 238°
2026-04-25 02:23 24.12325 -154.52843 38070 ft 471 kts 238°
2026-04-25 02:23 24.08641 -154.58774 38066 ft 471 kts 238°
2026-04-25 02:24 24.04949 -154.64712 38069 ft 471 kts 238°
2026-04-25 02:24 24.01253 -154.70650 38070 ft 472 kts 237°
2026-04-25 02:25 23.97573 -154.76553 38077 ft 471 kts 237°
2026-04-25 02:25 23.93892 -154.82454 38070 ft 470 kts 237°
2026-04-25 02:26 23.90189 -154.88382 38069 ft 470 kts 237°
2026-04-25 02:26 23.86519 -154.94249 38059 ft 470 kts 237°
2026-04-25 02:27 23.82826 -155.00146 38057 ft 471 kts 237°
2026-04-25 02:27 23.79126 -155.06050 38057 ft 471 kts 237°
2026-04-25 02:28 23.75433 -155.11932 38060 ft 471 kts 237°
2026-04-25 02:28 23.71715 -155.17850 38056 ft 472 kts 237°
2026-04-25 02:29 23.68017 -155.23729 38066 ft 471 kts 237°
2026-04-25 02:29 23.64319 -155.29599 38064 ft 472 kts 237°
2026-04-25 02:30 23.60588 -155.35516 38067 ft 471 kts 237°
2026-04-25 02:30 23.56874 -155.41399 38069 ft 472 kts 237°
2026-04-25 02:31 23.52882 -155.47057 38072 ft 474 kts 227°
2026-04-25 02:31 23.47645 -155.51489 38071 ft 478 kts 216°
2026-04-25 02:32 23.42144 -155.55510 38061 ft 479 kts 216°
2026-04-25 02:32 23.36593 -155.59541 38054 ft 479 kts 216°
2026-04-25 02:33 23.31035 -155.63560 38056 ft 479 kts 216°
2026-04-25 02:33 23.25483 -155.67567 38063 ft 479 kts 215°
2026-04-25 02:34 23.19900 -155.71588 38070 ft 479 kts 216°
2026-04-25 02:34 23.14361 -155.75572 38064 ft 478 kts 215°
2026-04-25 02:35 23.08785 -155.79579 38068 ft 478 kts 216°
2026-04-25 02:35 23.03231 -155.83563 38060 ft 477 kts 216°
2026-04-25 02:36 22.97675 -155.87547 38072 ft 478 kts 216°
2026-04-25 02:36 22.92053 -155.91573 38061 ft 479 kts 216°
2026-04-25 02:37 22.86447 -155.95583 38053 ft 479 kts 216°
2026-04-25 02:37 22.80846 -155.99587 38055 ft 480 kts 216°
2026-04-25 02:38 22.75230 -156.03595 38063 ft 478 kts 216°
2026-04-25 02:38 22.69680 -156.07553 38059 ft 477 kts 216°
2026-04-25 02:39 22.64080 -156.11543 38055 ft 476 kts 216°
2026-04-25 02:39 22.58512 -156.15508 38047 ft 476 kts 216°
2026-04-25 02:40 22.52923 -156.19481 38040 ft 477 kts 216°
2026-04-25 02:40 22.47340 -156.23448 38053 ft 477 kts 216°
2026-04-25 02:41 22.41775 -156.27397 38045 ft 476 kts 216°
2026-04-25 02:41 22.36183 -156.31361 38048 ft 476 kts 216°
2026-04-25 02:42 22.30996 -156.35774 38024 ft 469 kts 229°
2026-04-25 02:42 22.26784 -156.41138 38053 ft 467 kts 233°
2026-04-25 02:43 22.22657 -156.46532 37664 ft 458 kts 233°
2026-04-25 02:43 22.20637 -156.49167 36906 ft 458 kts 232°
2026-04-25 02:43 22.18616 -156.51800 36395 ft 451 kts 232°
2026-04-25 02:43 22.16587 -156.54440 35768 ft 454 kts 232°
2026-04-25 02:44 22.14545 -156.57098 35194 ft 470 kts 232°
2026-04-25 02:44 22.12442 -156.59827 34287 ft 474 kts 231°
2026-04-25 02:44 22.10299 -156.62605 32690 ft 491 kts 231°
2026-04-25 02:44 22.08116 -156.65433 31161 ft 505 kts 230°
2026-04-25 02:45 22.05861 -156.68353 30395 ft 500 kts 230°
2026-04-25 02:45 22.03672 -156.71187 30210 ft 483 kts 230°
2026-04-25 02:45 22.01530 -156.73956 29835 ft 484 kts 229°
2026-04-25 02:45 21.99307 -156.76828 29249 ft 504 kts 229°
2026-04-25 02:46 21.97054 -156.79738 28588 ft 504 kts 229°
2026-04-25 02:46 21.94821 -156.82620 27960 ft 497 kts 230°
2026-04-25 02:46 21.92625 -156.85455 27347 ft 489 kts 230°
2026-04-25 02:46 21.90465 -156.88242 26750 ft 482 kts 230°
2026-04-25 02:47 21.88326 -156.91000 26153 ft 475 kts 230°
2026-04-25 02:47 21.86224 -156.93712 25570 ft 468 kts 230°
2026-04-25 02:47 21.84175 -156.96352 25004 ft 461 kts 230°
2026-04-25 02:47 21.82129 -156.98991 24439 ft 455 kts 230°
2026-04-25 02:48 21.80097 -157.01613 23871 ft 449 kts 230°
2026-04-25 02:48 21.78120 -157.04163 23319 ft 443 kts 230°
2026-04-25 02:48 21.76147 -157.06706 22753 ft 438 kts 230°
2026-04-25 02:48 21.74220 -157.09187 22200 ft 433 kts 230°
2026-04-25 02:49 21.72287 -157.11678 21641 ft 428 kts 230°
2026-04-25 02:49 21.70388 -157.14122 21085 ft 423 kts 230°
2026-04-25 02:49 21.68533 -157.16509 20541 ft 418 kts 230°
2026-04-25 02:49 21.66659 -157.18918 19988 ft 419 kts 230°
2026-04-25 02:50 21.64757 -157.21362 19414 ft 432 kts 230°
2026-04-25 02:50 21.62845 -157.23817 18804 ft 430 kts 230°
2026-04-25 02:50 21.60922 -157.26285 18208 ft 425 kts 230°
2026-04-25 02:50 21.59019 -157.28726 17628 ft 420 kts 230°
2026-04-25 02:51 21.57137 -157.31140 17069 ft 415 kts 230°
2026-04-25 02:51 21.55277 -157.33525 16488 ft 411 kts 231°
2026-04-25 02:51 21.53440 -157.35878 15910 ft 408 kts 231°
2026-04-25 02:51 21.51613 -157.38220 15334 ft 405 kts 231°
2026-04-25 02:52 21.49817 -157.40520 14761 ft 402 kts 231°
2026-04-25 02:52 21.48019 -157.42821 14186 ft 399 kts 232°
2026-04-25 02:52 21.46230 -157.45108 13615 ft 397 kts 232°
2026-04-25 02:52 21.44457 -157.47376 13048 ft 394 kts 232°
2026-04-25 02:53 21.42693 -157.49631 12473 ft 391 kts 232°
2026-04-25 02:53 21.40959 -157.51846 11904 ft 387 kts 232°
2026-04-25 02:53 21.39226 -157.54059 11339 ft 383 kts 232°
2026-04-25 02:53 21.37523 -157.56232 10806 ft 378 kts 232°
2026-04-25 02:54 21.35855 -157.58359 10664 ft 362 kts 232°
2026-04-25 02:54 21.34264 -157.60390 10549 ft 345 kts 232°
2026-04-25 02:54 21.32759 -157.62312 10445 ft 332 kts 232°
2026-04-25 02:54 21.31301 -157.64177 10332 ft 319 kts 232°
2026-04-25 02:55 21.29877 -157.65993 10212 ft 308 kts 232°
2026-04-25 02:55 21.28527 -157.67712 10090 ft 297 kts 232°
2026-04-25 02:55 21.27241 -157.69418 9954 ft 286 kts 240°
2026-04-25 02:55 21.26519 -157.71352 9637 ft 277 kts 261°
2026-04-25 02:56 21.26226 -157.73386 9315 ft 274 kts 266°
2026-04-25 02:56 21.26026 -157.75424 9014 ft 272 kts 267°
2026-04-25 02:56 21.25841 -157.77447 8718 ft 271 kts 267°
2026-04-25 02:56 21.25658 -157.79445 8422 ft 269 kts 267°
2026-04-25 02:57 21.25474 -157.81444 8122 ft 268 kts 266°
2026-04-25 02:57 21.25289 -157.83443 7825 ft 267 kts 266°
2026-04-25 02:57 21.25107 -157.85410 7529 ft 266 kts 266°
2026-04-25 02:57 21.24925 -157.87372 7229 ft 264 kts 266°
2026-04-25 02:58 21.24742 -157.89346 6927 ft 263 kts 266°
2026-04-25 02:58 21.24561 -157.91296 6629 ft 262 kts 265°
2026-04-25 02:58 21.24378 -157.93262 6337 ft 271 kts 265°
2026-04-25 02:58 21.24190 -157.95282 6136 ft 269 kts 265°
2026-04-25 02:59 21.24006 -157.97243 6078 ft 256 kts 265°
2026-04-25 02:59 21.23834 -157.99097 6001 ft 240 kts 267°
2026-04-25 02:59 21.23787 -158.00856 5921 ft 237 kts 271°
2026-04-25 02:59 21.23791 -158.02652 5863 ft 239 kts 271°
2026-04-25 03:00 21.23795 -158.04439 5803 ft 239 kts 271°
2026-04-25 03:00 21.23796 -158.06236 5740 ft 239 kts 272°
2026-04-25 03:00 21.23797 -158.08034 5674 ft 238 kts 271°
2026-04-25 03:00 21.23797 -158.09804 5606 ft 238 kts 271°
2026-04-25 03:01 21.23797 -158.11583 5540 ft 237 kts 271°
2026-04-25 03:01 21.23796 -158.13359 5477 ft 237 kts 271°
2026-04-25 03:01 21.23795 -158.15152 5412 ft 237 kts 271°
2026-04-25 03:01 21.23795 -158.16911 5358 ft 237 kts 271°
2026-04-25 03:02 21.23803 -158.18704 5303 ft 237 kts 275°
2026-04-25 03:02 21.24290 -158.20367 5150 ft 231 kts 306°
2026-04-25 03:02 21.25464 -158.21484 5066 ft 224 kts 336°
2026-04-25 03:02 21.26977 -158.21886 5026 ft 220 kts 355°
2026-04-25 03:03 21.28501 -158.21976 5013 ft 220 kts 360°
2026-04-25 03:03 21.30047 -158.21967 4950 ft 212 kts
2026-04-25 03:03 21.31355 -158.21402 4862 ft 198 kts 38°
2026-04-25 03:03 21.32170 -158.20244 4738 ft 196 kts 66°
2026-04-25 03:04 21.32450 -158.18816 4452 ft 193 kts 81°
2026-04-25 03:04 21.32543 -158.17398 4203 ft 187 kts 84°
2026-04-25 03:04 21.32559 -158.16007 3962 ft 182 kts 86°
2026-04-25 03:05 21.32541 -158.13277 3486 ft 184 kts 86°
2026-04-25 03:05 21.32540 -158.11911 3243 ft 182 kts 86°
2026-04-25 03:05 21.32539 -158.10559 3001 ft 179 kts 86°
2026-04-25 03:05 21.32538 -158.09219 2760 ft 178 kts 85°
2026-04-25 03:06 21.32538 -158.07889 2521 ft 177 kts 85°
2026-04-25 03:06 21.32537 -158.06593 2289 ft 169 kts 85°
2026-04-25 03:06 21.32536 -158.05310 2063 ft 173 kts 85°
2026-04-25 03:06 21.32527 -158.04034 1819 ft 166 kts 85°
2026-04-25 03:07 21.32530 -158.02817 1534 ft 159 kts 85°
2026-04-25 03:07 21.32534 -158.01686 1337 ft 147 kts 85°
2026-04-25 03:07 21.32534 -158.00566 1113 ft 145 kts 86°
2026-04-25 03:07 21.32518 -157.99535 968 ft 139 kts 85°
2026-04-25 03:08 21.32521 -157.98491 771 ft 137 kts 85°
2026-04-25 03:08 21.32523 -157.97469 620 ft 137 kts 85°
2026-04-25 03:08 21.32534 -157.96439 428 ft 139 kts 85°
2026-04-25 03:08 21.32529 -157.95401 252 ft 137 kts 86°
2026-04-25 03:09 21.32521 -157.94338 77 ft 145 kts 85°
2026-04-25 03:09 21.32525 -157.93315 37 ft 126 kts 86°
2026-04-25 03:09 21.32525 -157.92493 42 ft 91 kts 91°
2026-04-25 03:09 21.32528 -157.91921 31 ft 63 kts 90°
2026-04-25 03:10 21.32527 -157.91530 32 ft 30 kts 90°
2026-04-25 03:10 21.32563 -157.91322 34 ft 23 kts 28°
2026-04-25 03:10 21.32703 -157.91306 39 ft 18 kts
2026-04-25 03:10 21.32774 -157.91376 41 ft 16 kts 272°
2026-04-25 03:11 21.32773 -157.91505 40 ft 17 kts 270°
2026-04-25 03:11 21.32773 -157.91640 39 ft 18 kts 269°
2026-04-25 03:11 21.32772 -157.91783 39 ft 19 kts 269°
2026-04-25 03:11 21.32850 -157.91856 42 ft 15 kts 10°
2026-04-25 03:12 21.32949 -157.91829 46 ft 13 kts 13°
2026-04-25 03:12 21.33002 -157.91801 48 ft 6 kts 71°
2026-04-25 03:12 21.33002 -157.91754 48 ft 4 kts 99°
2026-04-25 03:12 21.33001 -157.91744 47 ft 0 kts 99°